Location: Bernay
(48.6766°N, 2.9386°E)
Time: 00:46:55
(UTC+00:00)

SJ 16-02 - Pass Details

Date: 28 April 2026
Orbit: 582 x 592 km, 75.0° (Epoch: 19 May)

Event Time Altitude Azimuth Distance (km) Brightness Sun altitude
Rises 20:39:48 0° 340° (NNW) 2,821 5.9 -14.7°
Reaches altitude 10° 20:42:03 10° 343° (NNW) 1,915 4.8 -15.0°
Maximum altitude 20:46:18 67° 67° (ENE) 635 1.3 -15.5°
Enters shadow 20:48:20 29° 142° (SE) 1,074 2.0 -15.7°
